World > North America > United States > Tennessee

Mountain City, Tennessee Regional Weather

Lat: 36.47N, Lon: 81.81W
Wx Zone: TNZ018
Warning FLW WEATHER ALERT - (More Info. Click Here) Warning
Feedback

Mountain City, TN Regional Weather

Expires:201908201600;;520415
ASUS44 KMEG 201510
RWRTN 
TENNESSEE HOURLY STATE WEATHER ROUNDUP
NATIONAL WEATHER SERVICE MEMPHIS TN
1000 AM CDT TUE AUG 20 2019


TNZ017-018-042-046-047-201600-
NORTHEAST TENNESSEE
  
CITY           SKY/WX    TMP DP  RH WIND       PRES   REMARKS
TRI CITIES     FAIR      81  67  62 E3        30.18R                  
ELIZABETHTON   FAIR      82  66  57 CALM      30.17S                  
GREENEVILLE    SUNNY     81  68  65 CALM      30.17S                  
$$


SKY/WX - Weather  TMP - Temperature  DP - Dew Point  RH - Relative Humidity
WIND - Wind Direction/Speed PRES - Barometric Pressure VSB - Visibility
WCI - Wind Chill Index E13G22 Wind - East Wind 13 mph/Gusts of 22 mph